Location: ???????
(52.3000°N, 54.4667°E)
Time: 14:56:09
(UTC+00:00)

Cosmos 1727 Rocket - Pass Details

Date: 24 January 2020
Orbit: 960 x 997 km, 82.9° (Epoch: 20 February)

Event Time Altitude Azimuth Distance (km) Brightness Sun altitude
Rises 15:23:05 0° 348° (NNW) 3,670 7.1 -22.5°
Reaches altitude 10° 15:25:37 10° 345° (NNW) 2,716 6.5 -22.9°
Maximum altitude 15:31:44 65° 266° (W) 1,054 4.3 -23.8°
Drops below altitude 10° 15:37:48 10° 186° (S) 2,689 6.4 -24.8°
Sets 15:40:18 0° 183° (S) 3,632 7.0 -25.1°
